This is the latest recevied weather packets stored in our database for station/object KE8GJZ-2. If no packets are shown the sender has not sent any weather packets the latest 10 day(s).
| Time | Temp. | Humidity | Pressure | Rain* | Wind** | Luminosity | Snow |
|---|---|---|---|---|---|---|---|
| 1778201429 | 10° C | 70% | 1010.2 hPa | 0 mm | - | 1 W/m² | - |
| 1778201125 | 10.56° C | 70% | 1010.2 hPa | 0 mm | - | 3 W/m² | - |
| 1778200822 | 10.56° C | 69% | 1010 hPa | 0 mm | - | 6 W/m² | - |
| 1778200518 | 10.56° C | 68% | 1009.9 hPa | 0 mm | - | 8 W/m² | - |
| 1778200216 | 11.11° C | 67% | 1010.1 hPa | 0 mm | - | 11 W/m² | - |
| 1778199911 | 11.11° C | 66% | 1010.1 hPa | 0 mm | - | 14 W/m² | - |
| 1778199609 | 11.11° C | 65% | 1010.1 hPa | 0 mm | - | 18 W/m² | - |
| 1778199305 | 11.67° C | 64% | 1010.2 hPa | 0 mm | - | 21 W/m² | - |
| 1778199001 | 11.67° C | 64% | 1010.1 hPa | 0 mm | - | 23 W/m² | - |
| 1778198697 | 11.67° C | 62% | 1010.1 hPa | 0 mm | - | 27 W/m² | - |
| 1778198394 | 12.22° C | 61% | 1009.9 hPa | 0 mm | - | 32 W/m² | - |
| 1778198091 | 12.22° C | 61% | 1009.8 hPa | 0 mm | - | 37 W/m² | - |
| 1778197789 | 12.22° C | 60% | 1009.8 hPa | 0 mm | - | 46 W/m² | - |
| 1778197485 | 12.22° C | 59% | 1010.2 hPa | 0 mm | - | 71 W/m² | - |
| 1778197182 | 12.22° C | 61% | 1009.8 hPa | 0 mm | - | 52 W/m² | - |
| 1778196878 | 12.22° C | 62% | 1010.1 hPa | 0 mm | - | 62 W/m² | - |
| 1778196577 | 12.22° C | 59% | 1010.1 hPa | 0 mm | - | 68 W/m² | - |
| 1778196273 | 12.22° C | 59% | 1010.1 hPa | 0 mm | - | 59 W/m² | - |
| 1778195970 | 12.22° C | 58% | 1010.1 hPa | 0 mm | - | 56 W/m² | - |
| 1778195666 | 12.22° C | 59% | 1010.1 hPa | 0 mm | - | 70 W/m² | - |
| 1778195363 | 12.22° C | 59% | 1010.1 hPa | 0 mm | - | 101 W/m² | - |
| 1778195061 | 12.78° C | 56% | 1010.2 hPa | 0 mm | - | 82 W/m² | - |
| 1778194761 | 12.78° C | 56% | 1010.3 hPa | 0 mm | - | 103 W/m² | - |
| 1778194457 | 12.78° C | 55% | 1010.3 hPa | 0 mm | - | 117 W/m² | - |
| 1778194153 | 12.78° C | 55% | 1010.3 hPa | 0 mm | - | 58 W/m² | - |
* Rain latest hour (hover to see other rain measurements)
** Current wind speed in m/s (hover to see current wind gust speed)